Tracking 17155 objects as of 31-July-2015
HD Live streaming from Space Station

INTELSAT 2-F4

Track INTELSAT 2-F4 now!
INTELSAT 2-F4 is classified as:


NORAD ID: 2969
Int'l Code: 1967-094A
Perigee: 35,682.1 km
Apogee: 35,848.0 km
Inclination: 5.1 °
Period: 1,434.6 minutes
Semi major axis: 42136 km
RCS: 2.5118 m2 (large)
Launch date: September 28, 1967
Source: International Telecommunications Satellite Organization (ITSO)
Your satellite tracking list
Your tracking list is empty





NASA's NSSDC Master Catalog

Two Line Element Set (TLE):
1 02969U 67094A   15207.38320116 -.00000213  00000-0  00000+0 0  9997
2 02969 005.1075 302.3602 0019690 211.6899 201.6566 01.00374265 76897

Source of the keplerian elements: AFSPC

N2YO: 333